Wetbulb
61.51 60.16 61.89 60.44 51.56 51.10 45.42 46.50 49.47 49.01 49.42 52.12 51.81 51.05 50.93 51.34 49.31 47.92 61.11 65.21 66.57 68.67 71.36 72.65 72.85 73.74 74.01 73.64 73.34 73.07 73.31 73.16 73.03 73.18 72.44 72.27 71.40 70.62 70.14 69.31 68.75 67.76 67.55 66.66 65.35 64.12 63.54 65.05 66.54
59.89 58.47 60.17 56.03 48.31 43.73 44.54 47.86 47.25 49.10 50.61 51.71 51.95 51.93 51.38 50.54 54.36 57.18 61.08 64.41 67.30 68.60 71.20 72.73 71.49 73.27 73.78 73.54 73.35 73.04 73.04 73.40 73.20 72.68 72.21 71.70 71.34 70.68 69.78 68.83 68.05 67.25 67.10 66.33 64.77 63.63 63.07 64.29 65.62
58.00 55.85 56.17 52.40 48.49 43.05 43.90 47.43 48.72 49.46 50.86 51.37 51.29 52.97 52.66 52.30 56.30 58.03 61.63 65.85 68.03 68.58 71.36 72.33 71.07 73.26 73.77 73.59 73.36 73.06 72.99 73.38 72.72 72.03 71.54 71.33 71.22 70.13 69.12 68.20 67.44 66.43 66.45 65.78 64.27 62.89 62.16 63.21 64.41
58.25 56.88 53.41 48.66 44.53 45.81 46.30 47.88 48.77 49.68 50.97 51.63 51.54 50.36 53.10 55.95 57.28 60.62 61.98 66.34 68.00 69.01 71.31 70.81 70.98 72.96 73.44 72.63 72.52 72.71 72.82 72.42 72.11 71.92 71.27 71.16 70.04 68.90 68.29 67.70 66.68 65.76 65.33 65.07 63.61 61.92 61.22 62.14 63.56
56.89 55.03 50.10 46.68 45.38 46.53 47.60 48.92 49.50 49.18 50.21 51.20 51.24 49.30 51.22 55.77 60.78 63.22 63.39 67.10 67.72 69.12 70.90 72.01 70.67 71.04 72.61 72.54 72.06 71.86 71.91 72.39 71.98 71.53 70.91 70.20 68.98 68.35 67.65 66.70 65.95 65.15 64.81 64.34 62.95 61.26 60.17 60.89 62.20
54.19 51.83 46.98 44.31 45.15 46.69 48.18 49.07 49.53 49.55 49.11 49.98 49.73 49.75 51.64 56.26 58.48 62.46 65.64 66.46 68.11 68.86 70.05 71.18 68.58 69.51 70.91 71.63 71.50 71.33 71.21 71.14 71.26 71.24 70.86 69.59 68.63 67.77 66.73 66.00 65.14 64.65 64.50 63.86 62.61 60.93 59.50 58.90 59.39
50.81 48.97 44.69 45.01 44.82 45.59 47.75 48.84 48.87 48.60 48.23 49.41 51.50 48.32 51.80 53.35 56.18 61.82 62.62 65.34 67.33 68.66 69.48 70.55 71.69 71.00 66.56 68.51 69.03 70.06 70.35 70.39 70.49 70.37 69.94 68.79 68.10 67.58 66.84 65.88 64.99 64.15 64.05 63.42 62.21 60.76 59.08 57.39 57.52
52.56 50.46 43.95 44.56 43.71 44.92 48.23 48.44 49.32 48.82 48.53 50.83 52.20 48.05 49.05 53.09 56.41 60.30 61.89 62.62 65.29 67.44 68.45 69.36 70.55 70.12 71.97 71.95 66.27 66.64 67.72 68.74 68.15 68.23 67.03 65.37 65.28 64.95 64.55 63.66 64.81 64.37 63.59 63.00 61.97 60.72 58.98 54.76 53.57
49.88 46.28 43.16 43.21 44.13 45.83 48.62 47.69 49.02 49.60 49.17 49.41 49.57 49.77 48.86 50.70 54.18 56.52 57.79 57.79 60.09 59.65 63.69 67.99 68.96 68.54 69.70 71.44 68.90 66.54 65.60 66.05 66.09 65.72 63.52 63.19 66.08 66.49 64.78 62.42 64.09 64.32 63.20 62.87 61.87 60.29 57.03 51.44 49.47
49.35 46.03 43.41 45.37 47.01 47.12 48.09 48.09 48.79 48.43 48.21 48.43 48.52 49.19 49.48 50.46 51.48 51.87 51.99 52.62 52.79 53.29 54.23 55.86 66.47 67.13 68.10 68.90 70.69 69.93 70.04 70.24 70.28 69.83 69.12 68.54 67.21 66.28 63.75 60.75 61.60 62.15 61.65 62.86 61.71 59.06 55.61 56.55 54.76
47.47 45.41 44.74 45.27 47.25 48.15 47.76 47.82 49.18 48.05 47.00 48.40 48.38 47.82 47.87 48.91 49.33 49.44 49.92 49.99 49.98 51.52 53.25 53.92 55.41 66.65 66.72 67.70 69.37 70.43 69.19 70.65 70.27 69.43 69.13 68.64 65.78 63.71 63.21 62.46 61.93 60.99 58.25 59.50 59.15 59.57 59.94 57.93 56.31
45.58 47.00 46.73 47.70 48.31 47.49 47.06 48.78 47.65 48.28 47.34 46.62 47.17 46.80 46.98 47.01 46.96 47.13 47.90 48.82 49.57 50.93 52.61 53.80 55.16 60.02 65.66 67.57 67.99 67.32 66.89 66.18 66.41 67.77 67.45 66.03 64.14 63.99 62.45 61.98 60.94 60.33 59.49 58.57 58.17 57.51 58.44 58.06 56.22
46.39 46.63 47.15 48.38 47.99 47.47 46.72 47.04 47.09 46.10 45.91 46.31 45.92 45.84 45.50 45.73 45.99 46.92 47.40 48.91 49.73 50.20 52.18 54.54 56.38 59.80 64.82 66.45 65.19 64.40 63.90 62.97 62.46 63.79 64.74 65.14 64.32 63.64 61.89 60.53 59.70 58.88 58.11 57.63 56.62 55.95 58.14 58.05 56.70
46.67 45.82 46.51 47.16 46.96 46.64 45.60 45.29 45.82 43.79 45.89 44.71 44.54 43.86 43.84 43.55 43.86 46.09 46.37 47.40 48.36 49.88 50.51 54.52 55.92 62.79 64.34 62.47 61.20 59.72 58.26 57.04 55.73 54.98 57.60 60.00 61.25 60.40 59.59 57.96 57.10 56.64 56.47 55.39 55.38 53.83 52.72 52.65 53.96
46.00 44.33 46.57 47.18 46.00 45.64 46.47 42.77 43.50 44.93 45.46 43.73 42.78 42.84 42.31 42.17 43.27 43.28 44.24 45.94 47.33 46.09 49.34 53.78 59.23 59.32 56.69 54.44 52.85 52.07 51.29 50.70 49.33 50.10 51.64 54.56 57.10 57.03 56.25 55.29 54.67 54.60 55.96 54.47 54.35 53.50 53.43 52.80 51.52
43.88 43.92 42.71 45.38 44.80 44.33 45.22 43.51 42.46 44.38 44.86 43.32 42.19 42.12 41.67 41.28 41.87 43.08 43.97 45.81 44.43 44.95 47.72 50.27 50.67 49.48 48.87 48.19 48.23 48.22 49.14 48.68 46.26 46.17 47.80 49.32 52.35 53.66 53.66 52.25 52.50 53.78 53.50 53.71 53.25 51.91 51.96 51.43 51.43
42.10 41.55 40.18 43.07 45.01 44.10 44.03 43.50 42.93 43.53 43.80 42.57 41.65 41.05 40.82 41.16 41.65 42.32 43.32 44.95 42.64 43.57 46.05 47.43 47.31 46.13 45.49 44.83 44.23 43.32 42.41 42.93 42.16 43.12 43.48 44.00 45.81 47.86 47.37 48.04 49.50 50.30 49.80 49.14 50.08 51.26 50.49 50.55 50.55
41.26 39.12 39.39 41.20 43.29 42.95 42.72 43.74 41.91 41.80 42.97 41.91 40.41 40.06 40.11 39.89 39.16 40.49 41.98 43.81 42.56 42.66 44.05 44.83 45.87 45.17 44.20 43.13 41.64 40.53 39.77 40.40 40.81 40.63 40.89 41.81 43.47 45.34 46.53 46.79 47.49 48.48 48.19 47.53 48.75 50.66 51.51 50.02 48.84
43.33 41.40 40.80 42.12 43.17 42.01 43.06 43.76 44.06 41.08 40.75 39.75 39.63 39.42 39.14 38.46 39.01 40.07 41.06 43.20 42.58 42.22 42.13 42.70 43.01 43.95 44.20 42.78 40.65 39.98 39.14 40.30 40.27 40.42 40.87 40.91 41.21 41.85 42.53 42.26 42.32 43.08 42.34 42.30 43.84 46.21 46.89 47.43 46.02
41.40 40.62 40.53 41.75 41.97 41.15 42.45 41.14 44.07 40.12 40.23 40.32 39.30 38.81 38.39 38.14 38.50 38.59 39.72 41.09 41.91 41.42 41.48 41.68 41.77 42.55 43.42 43.53 42.75 41.28 39.68 39.20 39.27 39.41 39.27 39.61 39.63 39.55 39.29 39.75 39.45 39.73 39.64 39.26 39.27 39.55 41.22 42.41 43.60
39.78 39.45 40.56 39.85 40.39 41.00 39.74 39.97 39.51 35.86 36.51 37.12 37.43 38.25 38.40 38.04 36.54 36.73 37.22 38.82 40.07 40.32 40.96 41.15 41.46 41.66 40.98 40.48 39.94 39.60 39.98 39.72 38.46 38.07 37.59 37.93 38.31 38.34 38.37 38.41 38.37 38.19 38.42 37.32 37.56 37.85 37.64 37.31 39.23
37.28 40.80 40.54 39.40 38.14 36.49 40.17 36.04 39.04 37.55 34.98 34.83 35.34 36.73 36.38 36.21 35.79 35.63 35.96 36.60 36.92 37.50 39.03 39.50 39.24 38.94 39.39 40.48 39.81 39.13 37.42 35.44 36.55 37.00 37.42 37.29 37.84 37.46 37.46 37.14 37.14 37.05 36.99 36.24 36.19 36.60 36.63 36.73 35.21
39.53 40.94 39.96 39.09 38.26 37.01 36.97 35.51 39.79 34.43 32.98 33.61 34.84 36.17 36.49 36.29 35.48 34.53 34.81 34.81 35.49 36.90 37.41 38.02 37.95 37.79 38.55 39.20 38.90 37.89 36.51 36.61 37.28 37.23 36.64 36.76 36.82 36.62 36.06 35.91 35.45 34.96 35.02 35.07 34.71 34.93 34.86 35.55 34.98
40.15 38.55 37.10 36.52 36.91 30.99 37.25 35.47 39.94 34.38 36.27 35.21 34.97 35.20 35.30 34.90 34.72 34.22 34.16 34.52 34.58 35.96 36.95 37.60 37.24 36.96 37.98 38.18 38.13 37.43 36.52 36.28 36.07 36.17 35.73 35.86 36.09 35.83 34.84 34.49 34.38 34.27 33.75 33.35 33.63 33.88 33.65 33.68 34.04
39.65 37.58 31.52 28.97 28.44 30.42 33.63 33.80 39.76 39.30 37.64 37.44 34.44 34.69 35.22 34.73 33.77 33.10 32.54 33.09 33.65 34.54 35.65 36.22 36.36 35.62 36.86 37.03 36.91 36.95 36.54 36.24 35.38 35.08 34.86 34.58 34.39 33.64 32.81 33.16 32.99 32.84 32.78 32.87 32.90 32.57 32.69 32.52 31.94
36.99 39.34 34.13 27.66 27.03 31.47 31.67 30.00 36.93 35.53 36.66 38.98 37.37 36.45 35.53 34.10 33.85 32.89 32.93 33.31 33.54 34.02 35.11 35.61 35.14 34.68 35.62 35.66 35.51 36.05 35.99 35.58 35.11 34.96 34.96 33.98 33.39 32.52 32.66 32.64 32.81 32.56 32.50 32.46 32.63 32.82 32.49 31.98 31.64
35.84 32.60 38.59 29.45 24.27 29.44 34.84 35.81 34.22 33.88 34.16 35.61 35.37 34.73 33.39 33.51 33.37 33.06 33.29 33.60 33.81 34.16 34.61 34.97 34.61 34.47 34.90 34.78 34.96 35.16 35.52 35.25 34.67 34.74 34.33 33.22 32.43 31.21 31.55 31.55 31.18 31.30 31.16 31.13 30.96 31.00 30.42 30.73 30.80
38.36 40.06 32.23 33.66 27.15 26.75 32.22 31.78 36.53 31.53 32.58 33.61 33.53 33.27 33.51 34.00 33.57 33.44 33.19 33.33 34.27 34.70 34.78 35.14 34.98 34.50 34.46 34.49 35.12 34.42 34.31 34.56 34.18 33.28 31.58 30.98 30.76 30.34 29.76 29.26 29.10 29.03 29.06 29.00 28.49 28.49 28.65 27.43 28.34
34.73 34.00 35.05 35.95 34.07 29.60 28.33 32.69 38.65 38.33 36.16 33.57 34.47 34.84 34.78 34.12 33.72 33.39 33.60 33.97 34.09 34.32 34.22 34.46 34.56 34.15 34.06 34.28 34.25 34.14 33.51 32.64 31.73 30.51 29.73 29.07 28.71 28.22 27.39 27.20 27.04 26.88 26.70 26.79 26.26 26.01 25.90 24.95 25.31
39.05 37.32 36.90 33.17 28.22 30.89 30.78 33.53 35.48 36.83 38.44 36.84 35.84 35.75 36.08 35.41 34.79 34.81 34.17 33.67 33.17 33.30 33.83 34.22 34.35 33.94 33.99 33.71 33.60 32.52 31.17 29.92 28.96 27.54 27.45 27.80 26.80 26.94 25.89 25.59 25.25 25.05 24.80 24.63 23.86 23.20 23.42 22.90 22.76
MSLP
1015.59 1015.29 1014.85 1014.07 1013.66 1012.95 1013.19 1013.90 1014.25 1014.08 1014.14 1014.42 1014.60 1014.32 1014.11 1014.18 1014.30 1015.32 1016.31 1016.48 1016.95 1016.90 1017.32 1017.86 1018.18 1018.49 1018.85 1019.10 1019.35 1019.45 1019.52 1019.67 1019.82 1019.97 1020.26 1020.43 1020.66 1020.80 1020.97 1021.04 1021.14 1021.13 1021.09 1021.14 1021.15 1021.15 1021.09 1021.04 1020.87
1015.42 1015.16 1014.55 1013.86 1013.04 1012.59 1013.31 1014.07 1014.04 1014.27 1014.61 1014.81 1014.78 1014.59 1014.36 1014.47 1015.08 1015.61 1015.98 1016.83 1017.04 1016.99 1017.40 1017.71 1018.29 1018.54 1018.85 1019.07 1019.38 1019.59 1019.71 1019.76 1019.84 1020.14 1020.30 1020.65 1020.71 1020.93 1021.10 1021.25 1021.27 1021.29 1021.33 1021.39 1021.52 1021.40 1021.44 1021.28 1021.09
1015.56 1015.25 1014.01 1013.52 1013.23 1012.95 1013.46 1014.21 1014.34 1014.70 1014.94 1014.81 1014.63 1014.93 1014.79 1014.95 1015.52 1015.99 1016.81 1017.03 1017.11 1017.26 1017.47 1017.74 1018.45 1018.62 1018.94 1019.08 1019.35 1019.56 1019.78 1019.89 1020.04 1020.31 1020.51 1020.78 1020.93 1021.15 1021.27 1021.43 1021.56 1021.62 1021.69 1021.81 1021.81 1021.83 1021.81 1021.66 1021.41
1015.29 1014.81 1014.64 1013.44 1013.45 1014.14 1014.12 1014.49 1014.78 1014.74 1014.98 1015.10 1014.94 1014.69 1015.45 1016.22 1016.31 1016.84 1017.13 1017.19 1017.14 1017.37 1017.65 1018.20 1018.65 1018.77 1019.03 1019.33 1019.51 1019.62 1019.81 1020.09 1020.30 1020.45 1020.64 1020.96 1021.21 1021.42 1021.49 1021.64 1021.59 1021.79 1021.92 1022.08 1022.12 1022.16 1022.12 1021.95 1021.71
1015.25 1014.40 1013.66 1013.62 1014.03 1014.53 1014.92 1015.07 1015.13 1014.82 1014.86 1014.84 1015.15 1015.06 1015.48 1016.47 1017.08 1017.27 1017.30 1017.40 1017.31 1017.62 1017.87 1018.27 1018.75 1018.86 1018.95 1019.26 1019.64 1019.87 1020.00 1020.16 1020.38 1020.64 1020.83 1021.11 1021.41 1021.59 1021.74 1021.87 1021.92 1022.13 1022.15 1022.30 1022.38 1022.46 1022.43 1022.24 1022.04
1014.59 1014.60 1013.68 1013.63 1014.25 1014.88 1015.16 1015.43 1015.31 1014.97 1015.07 1015.18 1015.20 1015.34 1016.07 1017.06 1017.22 1017.67 1017.74 1017.69 1017.63 1017.78 1018.10 1018.32 1018.95 1019.07 1019.13 1019.17 1019.47 1019.83 1020.09 1020.36 1020.58 1020.74 1021.01 1021.29 1021.56 1021.69 1021.86 1022.02 1022.19 1022.35 1022.44 1022.61 1022.70 1022.76 1022.72 1022.58 1022.50
1014.77 1014.52 1014.20 1014.33 1014.57 1014.99 1015.19 1015.69 1015.32 1015.14 1015.17 1015.41 1015.77 1015.58 1016.57 1017.14 1017.95 1018.05 1018.01 1017.92 1017.98 1018.15 1018.37 1018.44 1018.68 1019.03 1019.24 1019.19 1019.41 1019.81 1020.06 1020.38 1020.58 1020.84 1021.14 1021.43 1021.65 1021.78 1021.96 1022.08 1022.25 1022.47 1022.62 1022.83 1022.95 1023.03 1023.03 1022.93 1022.94
1015.73 1015.19 1014.98 1014.96 1014.93 1015.06 1015.58 1015.72 1015.76 1015.60 1015.57 1016.14 1016.28 1016.18 1017.01 1018.00 1018.37 1018.31 1018.25 1018.23 1018.30 1018.43 1018.57 1018.65 1018.90 1019.31 1019.03 1019.08 1019.53 1019.81 1020.12 1020.36 1020.59 1020.88 1021.21 1021.52 1021.77 1022.03 1022.27 1022.23 1022.40 1022.64 1022.83 1023.04 1023.11 1023.21 1023.24 1023.28 1023.31
1016.47 1015.40 1015.05 1015.16 1015.43 1015.34 1015.96 1015.80 1016.15 1016.44 1016.14 1016.40 1016.93 1017.63 1018.93 1019.12 1018.85 1018.53 1018.46 1018.49 1018.61 1018.95 1019.05 1018.99 1018.96 1019.36 1019.35 1019.24 1019.51 1019.79 1020.08 1020.34 1020.66 1021.07 1021.45 1021.76 1021.75 1021.91 1022.20 1022.45 1022.63 1022.60 1022.91 1023.02 1023.19 1023.44 1023.59 1023.61 1023.56
1016.13 1015.72 1015.48 1015.79 1015.84 1015.83 1016.19 1016.30 1016.32 1016.53 1016.57 1016.99 1017.79 1018.93 1019.64 1019.59 1019.30 1019.06 1019.06 1019.09 1019.26 1019.42 1019.56 1019.56 1019.15 1019.38 1019.47 1019.53 1019.42 1019.73 1019.79 1020.06 1020.31 1020.60 1021.10 1021.24 1021.59 1022.00 1022.43 1022.89 1023.01 1023.08 1023.21 1023.21 1023.37 1023.61 1023.77 1023.60 1023.40
1016.51 1015.99 1016.27 1016.34 1016.49 1016.67 1016.61 1016.67 1016.89 1016.95 1017.17 1017.70 1018.24 1019.29 1020.13 1020.14 1020.09 1019.98 1020.00 1020.19 1020.26 1020.25 1020.01 1019.99 1019.83 1019.33 1019.53 1019.69 1019.66 1019.65 1020.04 1020.16 1020.33 1020.49 1020.85 1021.12 1021.79 1022.38 1022.64 1022.99 1023.21 1023.44 1023.55 1023.61 1023.73 1023.55 1023.47 1023.76 1023.71
1016.59 1016.64 1016.66 1016.74 1017.05 1017.20 1017.08 1017.08 1017.22 1017.65 1018.56 1019.55 1020.03 1020.52 1020.82 1020.91 1021.02 1021.08 1021.01 1020.98 1020.83 1020.57 1020.42 1020.30 1019.99 1019.61 1019.69 1019.77 1019.94 1020.31 1020.51 1020.87 1020.98 1021.05 1021.37 1021.65 1021.88 1022.37 1022.88 1023.05 1023.34 1023.52 1023.82 1023.84 1023.99 1024.07 1023.88 1023.91 1023.98
1016.77 1016.78 1017.01 1017.06 1017.29 1017.45 1017.60 1017.40 1017.58 1018.51 1019.81 1020.59 1021.05 1021.32 1021.51 1021.68 1021.78 1021.84 1021.86 1021.70 1021.52 1021.14 1020.82 1020.40 1020.00 1019.51 1019.74 1019.90 1020.43 1020.89 1021.21 1021.53 1021.89 1021.77 1021.89 1021.98 1022.18 1022.52 1023.11 1023.49 1023.71 1023.90 1023.98 1024.04 1024.14 1024.15 1023.87 1023.95 1024.05
1016.99 1017.02 1016.93 1016.97 1017.07 1017.33 1017.50 1017.74 1018.21 1019.54 1020.44 1021.05 1021.53 1021.92 1022.23 1022.37 1022.43 1022.22 1022.19 1022.10 1022.03 1021.81 1021.45 1020.78 1019.85 1019.78 1019.99 1020.36 1020.97 1021.68 1022.27 1022.65 1022.86 1023.04 1022.95 1022.80 1022.77 1023.14 1023.48 1023.81 1024.07 1024.47 1024.20 1024.46 1024.52 1024.33 1024.55 1024.58 1024.38
1017.43 1017.06 1016.61 1016.34 1016.78 1017.13 1017.47 1018.03 1018.44 1019.61 1020.62 1021.24 1021.89 1022.37 1022.76 1023.01 1023.02 1022.99 1023.07 1022.81 1022.74 1022.66 1022.13 1021.25 1020.61 1020.56 1021.00 1021.62 1022.21 1022.78 1023.32 1023.71 1023.98 1024.17 1023.90 1023.78 1023.65 1023.94 1024.02 1024.40 1024.60 1024.86 1024.71 1024.63 1024.65 1024.47 1024.57 1024.60 1024.57
1017.39 1017.24 1016.34 1016.17 1016.67 1017.30 1017.63 1017.22 1018.80 1019.97 1020.61 1021.32 1022.02 1022.53 1022.95 1023.28 1023.40 1023.50 1023.48 1023.23 1023.26 1023.11 1022.69 1022.11 1021.81 1021.94 1022.31 1022.85 1023.37 1023.60 1024.03 1024.27 1024.82 1024.96 1024.82 1024.88 1024.67 1024.78 1024.78 1024.85 1025.43 1025.30 1025.14 1024.90 1024.71 1024.84 1024.63 1024.60 1024.40
1017.32 1016.35 1016.49 1016.19 1016.57 1016.93 1017.38 1017.28 1018.87 1020.07 1020.69 1021.43 1022.14 1022.68 1023.11 1023.40 1023.68 1023.88 1023.85 1023.68 1023.75 1023.60 1023.37 1022.98 1022.79 1022.95 1023.24 1023.74 1024.20 1024.88 1025.28 1025.53 1025.93 1026.02 1025.99 1026.11 1025.89 1025.89 1025.79 1025.77 1026.23 1025.94 1025.80 1025.65 1025.35 1024.98 1024.79 1024.54 1024.31
1015.88 1016.41 1016.53 1016.27 1016.54 1016.88 1017.11 1017.30 1019.00 1020.18 1020.83 1021.59 1022.41 1022.94 1023.36 1023.79 1024.23 1024.47 1024.41 1024.25 1024.25 1024.10 1023.96 1023.83 1023.68 1023.74 1023.81 1024.08 1024.71 1025.29 1025.74 1026.20 1026.59 1026.70 1026.71 1026.66 1026.67 1026.48 1026.31 1026.57 1026.46 1026.32 1026.11 1026.03 1025.73 1025.43 1025.09 1025.07 1024.86
1016.05 1016.14 1015.99 1016.20 1016.64 1017.00 1016.78 1017.02 1018.09 1020.09 1021.12 1021.87 1022.56 1023.17 1023.69 1024.24 1024.74 1024.92 1024.95 1024.70 1024.59 1024.50 1024.40 1024.40 1024.37 1024.60 1024.57 1024.78 1025.18 1025.55 1025.97 1026.54 1026.98 1027.42 1027.52 1027.28 1027.37 1027.32 1027.22 1027.23 1027.18 1027.07 1027.15 1027.28 1026.96 1026.45 1026.09 1025.72 1025.61
1016.64 1016.45 1016.30 1016.68 1016.92 1017.25 1016.77 1016.89 1017.87 1019.91 1020.85 1021.82 1022.53 1023.26 1023.92 1024.48 1024.75 1025.10 1025.27 1025.23 1025.03 1024.88 1024.83 1024.81 1024.88 1025.05 1025.05 1025.15 1025.40 1025.84 1026.71 1027.44 1027.80 1028.16 1028.12 1028.13 1028.07 1028.12 1028.04 1028.14 1028.36 1028.40 1028.25 1028.28 1028.12 1027.80 1027.23 1026.94 1026.76
1016.79 1016.59 1016.49 1016.88 1017.21 1017.41 1017.37 1016.49 1017.81 1019.94 1021.27 1022.33 1023.04 1023.62 1024.05 1024.41 1024.93 1025.32 1025.53 1025.57 1025.62 1025.51 1025.49 1025.37 1025.33 1025.39 1025.65 1025.83 1026.17 1026.70 1027.22 1027.84 1028.34 1028.73 1029.08 1029.33 1029.24 1029.19 1029.13 1029.14 1029.21 1029.31 1029.25 1029.27 1029.29 1028.98 1028.40 1027.78 1027.70
1016.76 1016.81 1017.15 1017.43 1017.65 1016.97 1017.53 1015.56 1016.70 1018.71 1020.60 1021.98 1022.97 1023.57 1024.13 1024.74 1025.32 1025.63 1025.77 1025.85 1026.09 1026.21 1026.26 1026.29 1026.38 1026.34 1026.40 1026.47 1026.62 1026.93 1027.44 1028.13 1028.97 1029.28 1029.78 1030.06 1030.10 1030.16 1030.21 1030.15 1030.03 1029.99 1029.90 1029.83 1029.72 1029.62 1029.43 1028.96 1028.31
1016.91 1017.19 1017.61 1017.90 1017.69 1017.65 1017.62 1017.75 1016.09 1018.56 1019.72 1021.01 1022.48 1023.41 1024.08 1024.71 1025.34 1025.80 1026.10 1026.27 1026.52 1026.60 1026.64 1026.76 1026.87 1027.02 1027.14 1026.98 1027.23 1027.78 1028.48 1029.30 1029.75 1029.96 1030.12 1030.26 1030.51 1030.68 1030.85 1030.94 1030.85 1030.71 1030.61 1030.56 1030.52 1030.17 1029.77 1029.77 1029.57
1017.71 1018.00 1018.49 1018.68 1018.30 1017.21 1016.58 1017.27 1014.96 1017.17 1017.49 1019.72 1021.75 1023.11 1024.00 1024.75 1025.49 1026.20 1026.67 1026.91 1027.15 1027.43 1027.32 1027.35 1027.58 1027.99 1028.21 1028.11 1028.11 1028.23 1028.68 1029.41 1030.03 1030.61 1030.68 1031.00 1031.06 1031.17 1031.42 1031.41 1031.51 1031.49 1031.39 1031.20 1030.93 1031.00 1030.72 1030.15 1029.95
1017.48 1017.69 1018.47 1018.57 1018.25 1016.12 1016.25 1016.65 1014.55 1016.36 1017.74 1018.81 1020.55 1022.24 1023.45 1024.48 1025.31 1026.05 1026.54 1026.84 1027.28 1027.66 1027.88 1027.96 1028.11 1028.43 1028.78 1028.96 1029.30 1029.44 1029.54 1029.86 1030.56 1030.69 1031.45 1031.53 1031.56 1031.76 1031.92 1031.78 1031.79 1031.72 1031.91 1031.76 1031.37 1031.20 1031.01 1030.75 1030.33
1016.66 1016.49 1016.63 1016.75 1016.93 1016.07 1016.77 1015.59 1015.05 1016.76 1018.00 1018.85 1020.66 1022.00 1023.30 1024.37 1025.14 1025.83 1026.39 1026.81 1027.30 1027.71 1027.86 1028.05 1028.36 1028.80 1029.31 1029.74 1030.17 1030.56 1030.56 1030.63 1030.85 1031.04 1031.13 1031.85 1031.99 1032.08 1032.00 1031.71 1031.68 1031.74 1031.67 1031.62 1031.26 1030.90 1031.03 1030.93 1030.49
1016.54 1016.55 1016.31 1016.80 1017.69 1016.60 1014.74 1014.75 1015.86 1017.25 1018.24 1019.22 1020.28 1021.68 1022.92 1023.92 1024.82 1025.51 1026.21 1026.65 1027.11 1027.61 1028.07 1028.32 1028.71 1029.15 1029.47 1029.76 1030.15 1030.70 1031.45 1031.00 1031.13 1031.45 1031.01 1031.87 1032.22 1032.34 1032.19 1032.08 1031.73 1031.88 1031.93 1031.83 1031.47 1031.31 1031.07 1030.86 1030.35
1015.38 1015.31 1016.38 1016.34 1016.03 1015.17 1013.74 1014.21 1014.24 1016.28 1017.41 1018.74 1019.87 1020.78 1021.96 1023.15 1024.26 1025.07 1025.79 1026.33 1026.88 1027.42 1028.05 1028.71 1029.06 1029.46 1029.73 1030.11 1030.25 1030.90 1031.52 1030.96 1031.50 1032.02 1031.39 1032.55 1032.63 1032.85 1032.50 1032.65 1032.40 1032.54 1032.44 1032.23 1031.94 1031.41 1031.05 1030.89 1030.33
1015.23 1014.95 1014.80 1014.65 1014.32 1013.82 1013.55 1012.87 1013.12 1014.25 1015.82 1017.31 1018.74 1019.89 1020.88 1022.07 1023.31 1024.44 1025.38 1026.07 1026.84 1027.45 1027.90 1028.34 1028.98 1029.66 1030.04 1030.13 1030.49 1030.96 1031.69 1031.22 1032.08 1032.17 1032.24 1033.23 1033.37 1033.28 1033.01 1032.87 1032.85 1032.65 1032.66 1032.39 1031.88 1031.50 1031.19 1030.77 1030.26
1013.82 1013.40 1013.28 1012.93 1013.67 1013.84 1013.76 1012.77 1013.71 1014.46 1015.19 1016.53 1017.67 1019.08 1020.37 1021.61 1022.81 1023.82 1024.69 1025.56 1026.31 1026.92 1027.65 1028.17 1028.87 1028.67 1030.12 1030.20 1030.61 1031.02 1031.74 1032.06 1032.75 1032.91 1033.21 1033.49 1033.44 1033.25 1033.27 1033.08 1032.89 1032.76 1032.65 1032.46 1032.11 1031.56 1031.14 1030.70 1030.05
Wind_Speed
2 3 2 2 4 2 5 4 2 2 2 2 1 3 6 4 5 5 2 5 2 9 13 14 10 14 11 13 12 10 10 11 11 13 13 15 15 15 14 14 13 12 13 13 13 13 11 10 9
3 1 1 1 2 5 6 2 3 3 3 1 1 1 1 6 3 3 2 5 1 10 13 14 9 13 11 12 12 10 10 10 10 12 12 13 13 14 13 13 14 12 12 13 13 13 12 11 10
0 3 3 1 1 4 5 2 2 1 1 1 1 1 2 4 5 3 4 6 5 9 12 11 8 12 11 11 12 10 9 9 9 9 11 12 13 13 13 12 13 12 12 12 13 13 12 11 11
1 3 3 2 8 3 3 3 1 3 3 0 1 4 3 4 4 5 2 4 6 8 11 10 6 10 12 11 11 10 9 9 8 10 12 14 13 12 13 12 13 12 11 12 13 13 12 12 12
1 2 2 3 4 3 1 1 1 2 2 3 0 3 3 4 5 6 4 3 6 8 8 10 7 8 10 12 10 9 8 9 10 11 12 14 13 13 13 13 12 11 10 11 12 12 12 13 13
1 2 3 5 4 3 2 1 2 3 2 2 2 3 4 5 8 7 4 4 3 6 7 8 7 4 7 12 11 10 9 8 9 10 14 14 13 14 13 13 11 10 10 11 12 12 12 12 12
1 1 1 3 5 4 3 1 4 2 2 4 1 3 4 9 9 4 4 4 4 4 5 7 8 7 5 5 10 10 9 9 9 10 12 13 12 13 13 12 11 10 10 10 10 11 11 12 12
2 0 4 3 6 4 3 3 0 1 3 1 2 3 4 7 8 2 4 5 5 5 3 4 6 5 7 7 2 7 8 7 6 8 11 11 10 9 8 11 11 10 9 8 9 10 10 10 10
1 3 4 4 6 5 3 4 3 1 3 2 3 4 5 9 6 2 2 4 4 5 5 1 4 6 7 6 4 4 8 8 7 9 9 10 6 6 4 9 7 11 8 8 8 9 8 7 8
2 2 2 1 3 4 3 3 0 3 3 3 5 7 6 6 6 5 5 4 5 6 7 5 4 5 5 4 6 3 3 6 6 7 11 8 7 5 6 6 7 8 8 6 8 8 6 2 4
2 2 3 3 3 1 2 3 2 3 4 1 1 3 6 6 8 7 6 7 7 8 6 7 6 5 6 4 3 3 2 0 1 5 7 6 6 4 4 3 3 3 4 3 3 2 4 6 5
3 3 3 3 4 4 3 1 3 4 3 4 6 5 5 7 8 8 8 9 10 9 9 8 6 6 5 3 2 4 3 3 4 5 5 3 3 4 3 2 3 3 2 4 3 3 4 5 5
3 2 3 3 5 5 2 7 4 3 4 6 7 7 7 7 7 7 7 7 9 9 10 9 6 6 5 5 5 6 6 6 6 6 7 4 3 4 3 4 4 3 3 3 3 3 4 4 5
1 2 5 5 5 5 6 2 4 4 7 6 5 7 8 9 10 8 10 10 10 10 10 10 3 6 7 9 11 9 8 8 8 8 8 9 6 5 4 4 4 3 4 4 3 4 3 3 5
0 5 6 9 3 5 7 4 6 7 6 5 5 6 6 7 8 9 8 8 9 8 9 9 7 12 14 14 12 9 9 9 9 8 12 11 10 8 8 6 6 5 5 5 3 4 3 3 3
3 3 5 4 5 3 6 3 6 6 6 4 3 4 4 7 7 8 8 8 9 8 9 12 12 15 15 14 10 10 10 10 9 8 9 13 12 9 9 8 6 5 5 5 5 4 3 4 4
4 8 6 3 3 3 7 1 8 0 7 5 3 2 3 4 7 8 8 8 8 8 8 13 13 14 15 15 13 13 13 11 10 10 9 13 13 12 8 8 6 7 6 6 5 4 5 5 6
8 7 5 7 4 5 5 9 8 1 6 5 4 3 3 4 7 7 8 8 8 9 10 11 11 13 14 12 11 10 10 10 10 10 9 12 10 11 10 9 10 9 9 10 10 9 7 7 9
4 7 8 5 2 4 13 14 12 7 6 7 6 6 5 5 5 6 7 7 9 10 11 11 11 9 7 7 8 9 10 11 11 11 15 16 14 15 13 11 12 11 12 12 12 9 10 8 11
8 11 13 7 4 5 12 16 10 10 7 8 8 8 8 8 8 8 8 8 10 11 11 12 12 10 9 8 9 10 10 11 11 11 14 15 16 16 14 13 12 13 10 13 13 13 8 7 10
15 16 13 10 1 6 7 16 12 5 5 7 7 8 9 10 10 9 10 10 10 12 12 13 14 15 14 15 12 12 11 10 10 11 11 13 15 15 14 14 11 11 10 9 10 11 12 8 8
15 12 10 9 6 11 4 10 6 9 10 11 12 12 11 11 9 10 11 12 11 11 11 13 13 14 12 12 12 14 12 12 10 9 10 10 14 14 13 13 12 11 8 10 9 9 9 9 8
4 6 8 6 10 7 9 9 4 6 12 14 14 14 13 12 11 11 11 11 11 11 12 13 15 14 13 14 14 12 14 10 8 8 11 11 11 13 12 12 11 10 8 9 10 10 10 7 7
13 8 5 2 3 10 16 14 6 8 9 17 17 16 15 14 12 11 10 9 11 10 11 13 15 14 13 14 15 16 15 12 9 8 8 7 7 8 11 10 9 9 8 9 8 8 9 8 7
6 11 3 5 6 8 0 12 11 4 7 18 23 21 19 16 15 14 13 12 11 11 11 12 14 14 14 14 13 13 14 13 11 9 7 6 5 5 7 8 8 7 7 7 7 7 7 7 7
17 14 7 7 7 2 3 9 5 3 4 10 20 20 18 17 15 15 14 13 12 12 12 13 14 14 12 12 12 10 9 7 7 7 6 5 5 5 7 7 7 8 9 9 10 7 8 8 8
8 11 1 4 1 3 7 4 4 4 6 12 21 21 20 19 17 17 15 13 13 12 13 13 13 12 12 11 9 9 7 7 8 7 8 6 7 6 8 10 11 11 11 10 10 7 9 9 10
7 12 6 5 6 7 4 6 8 11 13 16 22 23 22 20 19 17 15 15 13 13 12 12 11 11 10 9 8 7 7 8 8 6 10 8 8 9 9 8 9 9 9 10 10 9 9 11 9
8 8 5 3 5 5 3 5 2 10 18 22 22 23 23 22 20 18 16 15 14 13 12 12 11 10 8 8 8 8 7 8 7 7 7 5 4 5 6 7 8 9 10 11 11 11 12 13 13
10 11 16 8 7 5 3 5 2 2 13 19 21 22 22 21 20 18 17 17 16 15 13 12 10 11 8 8 8 8 7 6 4 4 3 3 4 5 6 8 9 9 10 11 12 13 13 14 14
Wind_Direction
333 338 290 233 212 194 111 110 327 162 170 34 31 313 27 15 9 39 82 163 89 164 167 176 162 148 149 139 138 139 140 141 141 124 123 115 111 107 100 91 75 65 60 58 56 54 56 58 63
355 289 201 159 208 152 107 108 159 65 51 347 180 209 205 73 42 79 124 146 136 164 169 174 157 147 151 146 144 146 147 144 143 134 129 120 119 111 98 89 80 63 57 53 51 51 50 54 55
86 337 255 104 119 112 120 162 116 80 7 259 202 328 18 51 62 49 39 143 140 158 170 167 169 151 159 152 152 153 151 153 142 139 130 124 113 100 90 87 82 66 59 54 51 50 47 48 48
284 176 145 237 110 96 85 119 190 168 152 148 330 122 128 27 10 359 15 149 152 155 171 143 190 169 166 165 163 159 155 151 144 133 132 125 113 103 92 89 82 67 60 54 52 50 49 50 48
39 236 151 131 119 120 205 328 275 177 126 113 254 96 72 63 24 33 113 121 138 151 169 169 184 190 181 163 167 164 160 147 137 133 130 122 112 100 92 86 76 69 62 59 55 52 50 50 50
155 287 199 186 146 151 214 253 235 186 136 113 169 121 77 36 33 40 78 81 102 149 167 177 182 210 202 175 172 168 165 158 145 136 134 128 120 112 106 97 90 76 64 63 54 51 49 49 50
52 285 120 146 152 178 169 200 220 149 153 107 49 146 103 48 11 21 47 73 98 120 156 175 184 202 251 228 165 167 167 165 155 143 138 128 126 121 117 110 93 77 67 72 62 59 48 43 45
81 110 151 183 181 169 130 191 68 272 115 43 321 145 148 11 354 8 60 70 82 90 114 173 181 202 217 184 178 173 168 162 169 151 142 132 126 122 118 117 105 92 83 89 72 71 57 53 47
244 195 179 178 175 151 141 188 146 340 262 69 47 58 8 344 343 53 68 72 68 58 38 317 199 208 211 222 158 224 178 156 145 124 134 137 140 145 158 84 116 111 100 107 88 78 65 67 66
273 251 189 135 169 165 152 250 216 222 199 160 126 100 37 20 33 48 27 6 3 351 340 330 262 208 194 223 203 194 236 188 186 169 161 160 161 119 118 113 96 84 76 75 97 92 86 9 22
149 246 151 189 212 203 219 235 191 230 233 92 285 61 44 43 42 38 27 10 346 332 323 327 303 227 198 185 216 203 70 88 200 190 170 152 126 134 129 127 107 85 64 73 71 29 45 33 14
233 199 202 160 183 165 210 282 231 241 58 46 58 66 55 46 40 23 8 358 349 341 339 325 298 244 193 162 137 77 70 45 36 21 68 111 115 137 135 121 108 89 55 82 60 38 32 25 20
233 205 196 210 201 231 177 238 281 175 114 98 89 72 55 47 37 33 12 7 354 352 345 338 293 207 160 120 88 71 62 59 43 41 55 57 92 103 82 66 56 64 59 54 65 55 29 18 8
142 250 269 262 242 213 219 215 196 131 139 110 91 67 51 39 23 20 17 10 5 1 358 348 76 135 106 87 80 68 61 58 51 41 34 47 62 64 75 68 63 19 61 47 35 54 40 13 342
72 281 274 236 228 216 168 175 195 137 158 123 93 79 64 48 38 32 15 13 10 7 3 6 46 75 78 75 73 78 70 62 51 41 38 42 49 58 71 61 49 37 51 67 46 52 41 358 335
235 254 267 131 170 141 213 213 145 161 190 149 113 89 71 56 42 34 26 27 31 30 36 53 67 72 75 77 77 73 68 70 58 45 45 42 51 47 61 64 44 40 48 48 48 29 26 4 338
212 259 228 283 202 144 224 231 156 40 205 178 155 119 90 79 52 36 33 39 42 48 59 71 76 83 87 84 80 74 69 65 57 53 47 43 43 51 56 52 39 43 44 41 28 38 21 4 347
211 214 222 240 165 207 205 245 171 100 191 184 177 163 126 82 46 34 40 48 58 68 73 79 81 88 93 92 92 83 77 73 64 59 58 56 54 57 61 62 53 44 40 32 21 20 18 15 351
237 216 209 207 179 240 245 253 204 181 182 186 184 171 140 96 75 64 60 65 78 70 72 72 82 80 89 92 91 83 83 78 72 66 62 61 57 56 55 52 45 43 42 35 27 16 16 15 357
218 237 243 269 237 226 262 252 224 196 214 206 181 168 152 133 106 86 82 82 79 85 85 87 86 88 89 94 91 92 90 79 78 71 63 59 57 54 53 52 48 42 42 38 32 26 12 18 13
224 231 237 254 143 230 279 262 217 180 168 163 168 152 145 135 123 108 97 93 92 84 87 92 95 94 93 99 102 100 97 88 74 64 61 55 56 56 57 56 53 50 44 37 29 22 25 12 16
229 212 231 245 242 261 203 285 202 192 183 185 169 167 153 142 129 120 116 106 97 93 93 90 91 89 87 90 91 93 93 94 86 83 78 66 57 55 51 51 49 48 44 39 31 22 18 8 17
244 148 206 226 239 272 205 262 138 172 210 193 179 171 162 152 146 138 125 114 106 107 103 101 99 95 95 98 99 98 95 91 92 86 82 76 68 56 48 41 40 38 34 28 21 14 15 11 354
133 102 88 117 216 250 230 219 199 202 218 178 176 174 168 162 155 140 126 123 113 111 106 103 98 90 90 91 94 99 105 105 98 82 75 61 53 48 41 40 35 31 24 18 14 3 3 359 345
178 155 184 224 208 251 320 212 261 214 186 184 174 175 175 168 164 159 154 146 135 123 115 110 107 101 98 94 90 91 93 93 86 84 71 67 60 47 38 33 30 26 14 6 0 353 346 341 332
194 195 196 221 206 202 137 226 234 122 137 174 175 172 169 173 172 170 164 155 146 141 132 127 119 115 109 102 98 98 101 97 95 93 92 72 57 38 28 26 22 15 9 1 356 348 341 329 320
177 213 198 100 55 261 206 223 207 151 152 164 171 171 178 180 179 176 170 166 159 152 148 140 133 127 124 121 118 114 106 108 96 79 69 47 39 23 18 13 11 5 358 351 343 331 324 320 314
199 146 178 215 221 231 213 255 234 198 184 175 180 183 182 181 181 180 176 172 167 159 151 147 141 137 134 133 122 110 106 84 69 56 53 34 25 14 9 1 359 348 343 339 333 327 323 314 310
169 189 206 215 218 221 259 226 204 199 185 185 189 188 184 183 182 180 181 176 170 164 161 155 151 144 141 128 122 116 97 76 63 53 52 29 11 4 360 355 345 342 336 336 332 326 319 317 310
236 220 192 200 182 241 312 246 188 205 189 187 188 189 187 185 183 183 180 177 174 172 168 166 161 145 147 136 127 103 85 76 86 86 80 34 8 3 356 349 343 338 334 330 324 319 316 311 309